Location: Casteau
(50.5142°N, 4.0161°E)
Time: 12:23:03
(UTC+00:00)

A-11 Canister half - Visible Passes

Search period start: 02 August 2021 00:00
Search period end: 12 August 2021 00:00
Orbit: 1513 x 1687 km, 47.2° (Epoch: 01 August)

Date Brightness Start Highest point End Pass type
(mag) Time Alt. Az. Time Alt. Az. Time Alt. Az.
02 Aug 9.3 20:37:09 10° W 20:47:04 66° SSW 20:56:31 12° ESE visible
02 Aug 9.8 22:42:13 10° W 22:51:02 36° SW 22:54:40 28° S visible
03 Aug 9.3 20:14:14 10° W 20:24:08 67° SSW 20:34:12 10° ESE visible
03 Aug 9.7 22:19:14 10° W 22:28:09 37° SW 22:32:27 27° S visible
04 Aug 10.7 00:28:21 10° WSW 00:30:36 11° WSW 00:30:36 11° WSW visible
04 Aug 9.3 19:51:18 10° W 20:01:12 68° SSW 20:11:17 10° ESE visible
04 Aug 9.7 21:56:16 10° W 22:05:17 39° SW 22:10:18 25° S visible
05 Aug 10.7 00:04:30 10° WSW 00:08:00 12° WSW 00:08:28 12° SW visible
05 Aug 9.7 21:33:18 10° W 21:42:25 41° SW 21:48:13 22° SSE visible
05 Aug 10.6 23:40:57 10° W 23:45:13 13° WSW 23:46:22 13° SW visible
06 Aug 9.7 21:10:21 10° W 21:19:32 42° SW 21:26:11 20° SSE visible
06 Aug 10.6 23:17:32 10° W 23:22:25 15° SW 23:24:21 14° SW visible
07 Aug 9.7 20:47:23 10° W 20:56:39 44° SW 21:04:12 17° SSE visible
07 Aug 10.6 22:54:14 10° W 22:59:37 16° SW 23:02:22 14° SW visible
08 Aug 9.7 20:24:27 10° W 20:33:46 46° SSW 20:42:16 13° SSE visible
08 Aug 10.6 22:30:59 10° W 22:36:49 17° SW 22:40:26 14° SSW visible
09 Aug 9.7 20:01:31 10° W 20:10:52 47° SSW 20:20:23 10° SE visible
09 Aug 10.6 22:07:48 10° W 22:14:01 18° SW 22:18:34 13° SSW visible
10 Aug 9.7 19:38:34 10° W 19:47:59 49° SSW 19:57:34 10° SE visible
10 Aug 10.6 21:44:38 10° W 21:51:11 20° SW 21:56:45 12° SSW visible
11 Aug 10.6 21:21:32 10° W 21:28:22 21° SW 21:34:59 11° S visible
